TimeCDT,TemperatureF,Dew PointF,Humidity,Sea Level PressureIn,VisibilityMPH,Wind Direction,Wind SpeedMPH,Gust SpeedMPH,PrecipitationIn,Events,Conditions,WindDirDegrees,DateUTC
1:53 AM,66.9,64.9,93,29.74,10.0,WSW,3.5,-,N/A,,Clear,240,2012-10-02 06:53:00
3:53 AM,64.0,62.1,93,29.76,10.0,Calm,Calm,-,N/A,,Clear,0,2012-10-02 08:53:00
4:53 AM,64.0,62.1,93,29.78,10.0,South,5.8,-,N/A,,Clear,190,2012-10-02 09:53:00
5:53 AM,63.0,62.1,97,29.80,10.0,SSW,4.6,-,N/A,,Clear,200,2012-10-02 10:53:00
6:53 AM,63.0,61.0,93,29.82,10.0,South,4.6,-,N/A,,Clear,190,2012-10-02 11:53:00
7:53 AM,66.0,63.0,90,29.84,10.0,WSW,6.9,-,0.01,,Mostly Cloudy,250,2012-10-02 12:53:00
8:32 AM,66.2,62.6,88,29.87,10.0,WSW,5.8,-,N/A,,Mostly Cloudy,250,2012-10-02 13:32:00
8:53 AM,68.0,62.1,81,29.86,10.0,West,4.6,-,N/A,,Mostly Cloudy,260,2012-10-02 13:53:00
9:53 AM,69.1,62.1,78,29.88,10.0,WSW,8.1,-,N/A,,Overcast,240,2012-10-02 14:53:00
10:53 AM,71.1,62.1,73,29.89,10.0,West,6.9,-,N/A,,Overcast,260,2012-10-02 15:53:00
11:30 AM,73.4,62.6,69,29.91,10.0,SW,8.1,-,N/A,,Overcast,230,2012-10-02 16:30:00
11:53 AM,73.0,61.0,66,29.90,10.0,SW,9.2,-,N/A,,Overcast,230,2012-10-02 16:53:00
12:39 PM,73.4,62.6,69,29.90,10.0,SSW,8.1,-,N/A,,Overcast,210,2012-10-02 17:39:00
12:46 PM,73.4,60.8,65,29.91,10.0,SW,8.1,-,N/A,,Overcast,230,2012-10-02 17:46:00
12:53 PM,73.9,62.1,66,29.89,10.0,Variable,5.8,-,N/A,,Overcast,0,2012-10-02 17:53:00
1:00 PM,73.4,60.8,65,29.90,10.0,SW,10.4,-,N/A,,Overcast,220,2012-10-02 18:00:00
1:53 PM,73.9,61.0,64,29.89,10.0,WSW,9.2,-,N/A,,Overcast,250,2012-10-02 18:53:00
2:53 PM,75.0,61.0,62,29.89,10.0,West,8.1,-,N/A,,Mostly Cloudy,260,2012-10-02 19:53:00
3:53 PM,75.9,62.1,62,29.89,10.0,West,3.5,-,N/A,,Scattered Clouds,260,2012-10-02 20:53:00
4:53 PM,73.9,62.1,66,29.91,10.0,WNW,6.9,-,N/A,,Scattered Clouds,290,2012-10-02 21:53:00
5:53 PM,73.0,63.0,71,29.92,10.0,NNW,6.9,-,N/A,,Scattered Clouds,330,2012-10-02 22:53:00
7:53 PM,66.9,63.0,87,29.97,10.0,Calm,Calm,-,N/A,,Clear,0,2012-10-03 00:53:00
9:53 PM,66.0,63.0,90,30.01,10.0,Calm,Calm,-,N/A,,Partly Cloudy,0,2012-10-03 02:53:00
10:53 PM,64.9,62.1,90,30.04,10.0,NNW,4.6,-,N/A,,Scattered Clouds,340,2012-10-03 03:53:00
11:53 PM,63.0,61.0,93,30.04,10.0,Calm,Calm,-,N/A,,Clear,0,2012-10-03 04:53:00